STARLINK-34822, 65086

Orbit data source: Space-Track

STARLINK-34822, 65086 is a payload satellite owned by SpaceX/Seattle (US) in LEO that was launched on Mon, 04 Aug 2025 UTC via an FALCON 9 launch vehicle from the Air Force Eastern Test Range (AFETR). Payload-class satellites include a variety of spacecraft equipped with specific instruments for various scientific and technological missions. These include communications satellites like Starlink; space stations such as the ISS; scientific satellites like the Hubble; Earth observation satellites from companies like Planet Labs, Umbra, and HawkEye 360; GPS; miniature CubeSats for education and research; and military/defense satellites.

Loading next visibility...
Identifier
65086, 2025-167J
Orbit
LEO
Country
Flag of USUS
Related business
Manufacturer
SpaceX/Seattle
Mission
Operational Commercial Communications
Bus & Motor
STARLINK V2MO, Unknown motor
Mass
575 kg wet, ~530 kg dry
Launch date (UTC)
2025-08-04 (11 months ago)
Launch vehicle
FALCON 9
Launch site
Air Force Eastern Test Range (AFETR)
Object type
Payload
Rocket body
Debris
Shape & HBR
Box + 2 Pan, 17.7 m
Radar Cross Section
36.964 m², Large (>1 m²)

Expand to show TLE details & history
Last TLE update: 2 days ago

TLE from 2 days ago
0 STARLINK-34822
1 65086U 25167J   26173.51299221  .00022607  00000-0  77297-3 0  9998
2 65086  53.1586 260.1332 0001304  73.2857 286.8287 15.30205071 49527
Epoch: 2026-06-22T12:18Z
TLE epoch observation values (Epoch: 2026-06-22T12:18:42.526Z)
Latitude
-0.00003°
Longitude
164.75815°
Altitude
475.841 km
Speed
7.629 km/s
True Right ascension
17h 20m 31s
True Declination
0° 00' 00"
Sunlit
Object was in full shadow at epoch
Visualization orbit readout
Latitude
Unknown
Longitude
Unknown
Altitude
Unknown
Speed
Unknown
Apparent Right ascension
Unknown
Apparent Declination
Unknown
Sunlit
N/A
Visualization observer readout
Local Sidereal Time
13:50:53
Azimuth
Unknown
Elevation
Unknown
Doppler factor
Unknown
Orbital elements
Apogee altitude
476.35 km
Perigee altitude
474.563 km
Semi-major axis
6,853.594 km
Eccentricity
0.00013
Inclination
53.1586°
RAAN
260.1332°
Arg. of periapsis
73.2857°
True anomaly
286.8144°
Mean anomaly
286.8287°
Eccentric anomaly
286.82155°
Mean motion
3.8253 °/min
Orbital period
94.11 mins
BSTAR
0.00077297
Loading maneuver chart data...
Computing Atmospheric mass density...
Loading historical data...
Loading historical data...
Loading historical data...
Loading historical data...
Loading historical data...
Loading historical data...
Loading historical data...

Documentation

Showing up to 5 results
|